[[{"header":{"parameterUnit":"m.s-1","parameterCategory":1,"la1":30.2991,"la2":30.254,"lo1":-89.0895,"lo2":-89.0444,"dy":0.0017,"dx":0.0017,"nx":28,"ny":28,"refTime":"2023-09-27T09:00:00:Z","depth":0,"parameterNumber":2,"parameterNumberName":"U-component_of_WINDS"},"data":[0,0,0,0,0,0,0,0,0,0,0,0,0,0,0,0,0,0,0,0,0,0,0,0,0,0,0,0,0,0,0,0,0,0,0,0,0,0,0,0,0,0,0,0,0,0,0,0,0,0,0,0,0,0,0,0,0,0,-3.432,-3.432,0,-3.4339,-3.4339,-3.4339,-3.428,-3.4278,-3.4277,-3.4275,-3.4293,-3.4296,-3.4298,0,0,0,0,0,0,0,0,0,0,0,0,0,-3.4231,-3.4233,-3.432,-3.432,-3.432,-3.4339,-3.4339,-3.434,-3.428,-3.4278,-3.4276,-3.4274,-3.4293,-3.4295,-3.4298,0,0,0,0,0,0,0,0,0,0,0,0,0,-3.4262,-3.4233,-3.432,-3.4293,-3.4291,-3.4339,-3.4339,-3.434,-3.4281,-3.4278,-3.4276,-3.4273,-3.4292,-3.4295,-3.4298,-3.4373,0,0,-3.4308,-3.431,0,0,0,0,0,0,0,0,-3.426,-3.4265,-3.4297,-3.4295,-3.4293,-3.4304,-3.4315,-3.4351,-3.4282,-3.4285,-3.4275,-3.4272,-3.4299,-3.4302,-3.4311,-3.4373,-3.4374,-3.4309,-3.431,-3.4312,-3.4313,0,0,0,0,0,0,0,-3.4258,-3.4264,-3.4327,-3.4297,-3.4295,-3.428,-3.4281,-3.4321,-3.4307,-3.4284,-3.428,-3.4283,-3.4298,-3.4308,-3.4311,-3.4375,-3.4308,-3.4311,-3.4313,-3.4315,-3.45,-3.4502,0,0,0,0,0,0,-3.4259,-3.4262,-3.4327,-3.4328,-3.4269,-3.4284,-3.4285,-3.4303,-3.4306,-3.4304,-3.4285,-3.428,-3.4304,-3.4307,-3.4312,-3.44,-3.4312,-3.4315,-3.4317,-3.4497,-3.45,-3.4503,0,0,0,0,0,0,-3.4258,-3.4266,-3.4326,-3.4294,-3.4301,-3.4288,-3.4309,-3.4305,-3.4316,-3.4307,-3.4304,-3.4299,-3.4302,-3.4307,-3.4358,-3.44,-3.4316,-3.4319,-3.4493,-3.4498,-3.4502,-3.4576,0,0,0,0,0,0,-3.4255,-3.4266,-3.4294,-3.4295,-3.4303,-3.4373,-3.4311,-3.4308,-3.4322,-3.4315,-3.4319,-3.4317,-3.43,-3.4354,-3.4361,-3.4403,-3.4322,-3.4489,-3.4495,-3.45,-3.457,-3.4583,-3.4593,0,0,0,0,0,-3.4253,-3.4314,-3.4296,-3.4304,-3.4338,-3.4375,-3.4379,-3.4359,-3.4325,-3.4354,-3.4348,-3.4317,-3.4394,-3.4359,-3.4368,-3.441,-3.4487,-3.4494,-3.45,-3.4565,-3.458,-3.4593,0,0,0,0,0,0,-3.4317,-3.4313,-3.4293,-3.4357,-3.4367,-3.4365,-3.44,-3.4376,-3.4395,-3.4388,-3.4361,-3.4363,-3.4419,-3.4419,-3.4381,-3.4483,-3.4434,-3.4443,-3.4481,-3.4495,-3.4507,-3.4506,-3.4325,0,0,0,0,0,-3.4338,-3.4369,-3.4364,-3.4421,-3.4427,-3.4413,-3.4428,-3.4412,-3.4421,-3.4425,-3.4423,-3.4433,-3.4459,-3.4477,-3.4501,-3.4569,-3.457,-3.4603,-3.4615,-3.4624,-3.4632,-3.467,-3.4685,-3.4525,-3.4525,-3.4525,0,0,-3.4383,-3.4385,-3.4406,-3.4434,-3.444,-3.4472,-3.4417,-3.4453,-3.4478,-3.443,-3.4479,-3.4478,-3.4487,-3.4548,-3.4574,-3.455,-3.4676,-3.4633,-3.4641,-3.4643,-3.4678,-3.4693,-3.4707,-3.453,-3.4529,-3.4528,0,0,-3.4482,-3.4486,-3.4534,-3.4541,-3.4551,-3.4542,-3.4553,-3.4556,-3.4554,-3.4602,-3.4567,-3.4595,-3.4641,-3.4649,-3.4659,-3.4762,-3.4734,-3.477,-3.4832,-3.4869,-3.4881,-3.4892,-3.493,-3.4943,-3.4778,-3.4778,-3.4778,0,-3.4536,-3.4585,-3.4562,-3.4601,-3.4615,-3.4574,-3.4622,-3.463,-3.4647,-3.4657,-3.463,-3.4687,-3.469,-3.4753,-3.4778,-3.4787,-3.48,-3.477,-3.4881,-3.4892,-3.4902,-3.4937,-3.4952,-3.4783,-3.4782,-3.4782,-3.4781,0,-3.4651,-3.4686,-3.4723,-3.4742,-3.4759,-3.4803,-3.4786,-3.4807,-3.4789,-3.4782,-3.4832,-3.4835,-3.4859,-3.4872,-3.4854,-3.4932,-3.4917,-3.4886,-3.4837,-3.4922,-3.4955,-3.4968,-3.4789,-3.4787,-3.4786,-3.4785,0,0,-3.4791,-3.4797,-3.4811,-3.482,-3.4828,-3.4854,-3.4896,-3.492,-3.4938,-3.4951,-3.4986,-3.5026,-3.4997,-3.5009,-3.4992,-3.5024,-3.5106,-3.4988,-3.4988,-3.5011,-3.5193,-3.5218,-3.5234,-3.5088,-3.509,-3.5092,-3.5193,0,-3.4889,-3.4962,-3.4943,-3.5016,-3.5047,-3.5009,-3.5046,-3.5055,-3.505,-3.5075,-3.5069,-3.5098,-3.5058,-3.5065,-3.5095,-3.509,-3.5143,-3.5082,-3.512,-3.5122,-3.512,-3.5251,-3.5276,-3.5371,-3.5205,-3.5208,-3.5209,0,-3.5014,-3.5033,-3.5109,-3.5113,-3.5125,-3.5159,-3.5179,-3.5204,-3.5214,-3.5208,-3.5221,-3.5198,-3.5239,-3.5189,-3.5246,-3.5206,-3.522,-3.522,-3.5223,-3.5227,-3.5171,-3.5259,-3.5401,-3.5416,-3.5229,-3.5227,-3.5226,0,-3.511,-3.5154,-3.5206,-3.5214,-3.5219,-3.5244,-3.5247,-3.5254,-3.527,-3.5287,-3.5298,-3.532,-3.5332,-3.535,-3.5333,-3.5298,-3.5393,-3.5342,-3.539,-3.539,-3.5412,-3.5411,-3.556,-3.542,-3.542,-3.5419,-3.5419,0,-3.5222,-3.527,-3.5249,-3.5281,-3.5334,-3.5311,-3.5364,-3.5363,-3.5369,-3.54,-3.5368,-3.5397,-3.5373,-3.54,-3.5387,-3.5437,-3.5442,-3.5439,-3.5435,-3.5442,-3.5443,-3.5452,-3.5445,-3.5423,-3.5422,-3.5422,-3.5421,0,-3.5338,-3.5326,-3.538,-3.5381,-3.5382,-3.5422,-3.5422,-3.5452,-3.5444,-3.5484,-3.5491,-3.548,-3.551,-3.5495,-3.5527,-3.5518,-3.5582,-3.5569,-3.558,-3.5577,-3.5626,-3.5622,-3.5786,-3.5807,-3.5653,-3.5654,-3.5656,0,-3.5411,-3.5448,-3.5453,-3.5472,-3.5478,-3.5508,-3.5524,-3.5503,-3.5522,-3.5535,-3.5563,-3.5591,-3.5612,-3.5663,-3.5657,-3.5681,-3.5669,-3.5725,-3.5672,-3.5679,-3.5671,-3.5669,-3.5673,-3.5736,-3.5738,-3.5739,-3.574,0,-3.5543,-3.5535,-3.556,-3.5584,-3.5604,-3.5622,-3.5636,-3.5653,-3.5632,-3.5654,-3.5686,-3.5702,-3.5735,-3.5763,-3.5784,-3.5787,-3.5761,-3.5757,-3.5769,-3.5778,-3.5783,-3.5782,-3.561,-3.5753,-3.5752,-3.5751,-3.575,-3.575,-3.564,-3.5671,-3.5681,-3.571,-3.5718,-3.5733,-3.5761,-3.5757,-3.5783,-3.5809,-3.5794,-3.5831,-3.584,-3.5865,-3.5872,-3.59,-3.5878,-3.5896,-3.59,-3.5906,-3.5913,-3.5778,-3.5904,-3.5903,-3.5903,-3.5902,-3.5902,0,-3.5771,-3.5775,-3.5802,-3.5824,-3.5847,-3.582,-3.5835,-3.5856,-3.5889,-3.59,-3.5922,-3.5958,-3.5985,-3.5982,-3.6007,-3.603,-3.6019,-3.6037,-3.6036,-3.6037,-3.5931,-3.5918,-3.6046,-3.6046,-3.6046,-3.6046,-3.6046,-3.6046,-3.5842,-3.5893,-3.5887,-3.5942,-3.5945,-3.5982,-3.5993,-3.6006,-3.6014,-3.6056,-3.6079,-3.6077,-3.6082,-3.6107,-3.6131,-3.6129,-3.614,-3.6164,-3.6158,-3.6059,-3.6044,-3.6031,-3.6019,-3.6166,-3.6166,-3.6262,-3.6263,-3.6263]},{"header":{"parameterUnit":"m.s-1","parameterCategory":1,"la1":30.2991,"la2":30.254,"lo1":-89.0895,"lo2":-89.0444,"dy":0.0017,"dx":0.0017,"nx":28,"ny":28,"refTime":"2023-09-27T09:00:00:Z","depth":0,"parameterNumber":3,"parameterNumberName":"V-component_of_WINDS"},"data":[0,0,0,0,0,0,0,0,0,0,0,0,0,0,0,0,0,0,0,0,0,0,0,0,0,0,0,0,0,0,0,0,0,0,0,0,0,0,0,0,0,0,0,0,0,0,0,0,0,0,0,0,0,0,0,0,0,0,-4.2486,-4.2487,0,-4.2526,-4.2526,-4.2527,-4.2487,-4.2486,-4.2484,-4.2483,-4.2519,-4.2522,-4.2524,0,0,0,0,0,0,0,0,0,0,0,0,0,-4.2373,-4.2375,-4.2486,-4.2487,-4.2487,-4.2526,-4.2526,-4.2527,-4.2488,-4.2486,-4.2484,-4.2482,-4.2518,-4.2521,-4.2524,0,0,0,0,0,0,0,0,0,0,0,0,0,-4.2418,-4.2376,-4.2486,-4.2472,-4.2472,-4.2525,-4.2526,-4.2527,-4.2488,-4.2486,-4.2483,-4.2481,-4.2518,-4.2521,-4.2525,-4.2593,0,0,-4.2536,-4.2537,0,0,0,0,0,0,0,0,-4.2415,-4.2422,-4.2474,-4.2473,-4.2473,-4.2499,-4.2499,-4.2549,-4.2489,-4.2482,-4.2483,-4.248,-4.2514,-4.2518,-4.253,-4.2594,-4.2596,-4.2536,-4.2538,-4.254,-4.2541,0,0,0,0,0,0,0,-4.2412,-4.242,-4.2502,-4.2475,-4.2474,-4.2463,-4.2467,-4.2509,-4.251,-4.2482,-4.2479,-4.2485,-4.2513,-4.2527,-4.2531,-4.2596,-4.2536,-4.2539,-4.2541,-4.2543,-4.2719,-4.2721,0,0,0,0,0,0,-4.2411,-4.2418,-4.25,-4.2503,-4.2438,-4.2467,-4.2471,-4.2493,-4.251,-4.251,-4.2487,-4.2483,-4.2522,-4.2527,-4.2532,-4.2613,-4.254,-4.2543,-4.2545,-4.2716,-4.2719,-4.2722,0,0,0,0,0,0,-4.2409,-4.2419,-4.2499,-4.246,-4.2469,-4.2471,-4.2496,-4.2495,-4.2508,-4.2513,-4.2513,-4.2501,-4.252,-4.2527,-4.2578,-4.2614,-4.2545,-4.2548,-4.2713,-4.2717,-4.272,-4.2776,0,0,0,0,0,0,-4.2406,-4.2418,-4.2445,-4.2461,-4.2471,-4.2546,-4.2498,-4.2497,-4.2515,-4.2511,-4.2526,-4.2526,-4.2519,-4.2573,-4.2582,-4.2618,-4.2551,-4.271,-4.2715,-4.2719,-4.2771,-4.2781,-4.279,0,0,0,0,0,-4.2402,-4.2458,-4.2447,-4.2457,-4.2505,-4.2548,-4.2554,-4.2545,-4.2518,-4.2545,-4.2548,-4.2526,-4.2609,-4.2579,-4.2588,-4.2626,-4.2708,-4.2713,-4.2719,-4.2767,-4.2779,-4.279,0,0,0,0,0,0,-4.2446,-4.246,-4.2448,-4.2511,-4.2529,-4.2541,-4.2574,-4.2559,-4.2583,-4.2578,-4.2565,-4.2569,-4.2623,-4.2629,-4.2596,-4.2692,-4.2653,-4.2661,-4.2687,-4.2699,-4.2708,-4.2705,-4.2554,0,0,0,0,0,-4.2463,-4.2498,-4.2508,-4.2563,-4.2573,-4.2572,-4.259,-4.2583,-4.26,-4.2607,-4.2613,-4.263,-4.2659,-4.2679,-4.2707,-4.2772,-4.2774,-4.2802,-4.2811,-4.2819,-4.2826,-4.2861,-4.2874,-4.274,-4.274,-4.274,0,0,-4.2499,-4.2511,-4.2533,-4.2572,-4.2585,-4.262,-4.2579,-4.2618,-4.2644,-4.2612,-4.2662,-4.2667,-4.2684,-4.2743,-4.2769,-4.275,-4.2864,-4.2826,-4.2833,-4.2835,-4.2868,-4.2881,-4.2892,-4.2744,-4.2744,-4.2743,0,0,-4.2582,-4.2595,-4.2642,-4.2656,-4.2677,-4.2676,-4.2688,-4.2703,-4.2706,-4.2755,-4.2733,-4.2762,-4.2814,-4.2827,-4.2841,-4.2929,-4.291,-4.2938,-4.2988,-4.3022,-4.3033,-4.3042,-4.3074,-4.3086,-4.2945,-4.2945,-4.2946,0,-4.2623,-4.2677,-4.2668,-4.271,-4.2727,-4.2701,-4.2749,-4.2762,-4.279,-4.2802,-4.278,-4.2845,-4.2854,-4.2916,-4.2938,-4.295,-4.2962,-4.2937,-4.3032,-4.3042,-4.305,-4.308,-4.3092,-4.2949,-4.2948,-4.2948,-4.2948,0,-4.2727,-4.2765,-4.28,-4.283,-4.2851,-4.2895,-4.2892,-4.2914,-4.2904,-4.2905,-4.2956,-4.2967,-4.2997,-4.301,-4.3,-4.3071,-4.3058,-4.3035,-4.2995,-4.3066,-4.3094,-4.3106,-4.2954,-4.2952,-4.2951,-4.2951,0,0,-4.2839,-4.2864,-4.2877,-4.289,-4.2911,-4.2939,-4.2981,-4.3012,-4.3031,-4.3051,-4.3086,-4.313,-4.3109,-4.3124,-4.3115,-4.3146,-4.3215,-4.3118,-4.3118,-4.3136,-4.3294,-4.3312,-4.3326,-4.3203,-4.3205,-4.3206,-4.3292,0,-4.2923,-4.2999,-4.2992,-4.3064,-4.3098,-4.3074,-4.3111,-4.3127,-4.3129,-4.3158,-4.3159,-4.3191,-4.316,-4.317,-4.3198,-4.3201,-4.3247,-4.3194,-4.3234,-4.3236,-4.3232,-4.334,-4.3359,-4.344,-4.3303,-4.3305,-4.3307,0,-4.3032,-4.3058,-4.3133,-4.3149,-4.3163,-4.3197,-4.3224,-4.3252,-4.3269,-4.3269,-4.3286,-4.3272,-4.3314,-4.3274,-4.333,-4.3295,-4.331,-4.3314,-4.3317,-4.3321,-4.3276,-4.3347,-4.3465,-4.3478,-4.3324,-4.3322,-4.3321,0,-4.3107,-4.316,-4.3212,-4.3224,-4.3244,-4.3268,-4.3277,-4.3292,-4.3311,-4.3334,-4.3346,-4.3373,-4.3388,-4.3409,-4.3403,-4.3374,-4.3461,-4.342,-4.3461,-4.3461,-4.3481,-4.348,-4.3604,-4.349,-4.349,-4.349,-4.349,0,-4.3202,-4.325,-4.3246,-4.3279,-4.333,-4.3321,-4.3372,-4.3378,-4.3392,-4.3423,-4.3404,-4.3434,-4.3423,-4.3452,-4.3447,-4.3494,-4.3501,-4.3501,-4.3499,-4.3504,-4.3504,-4.3514,-4.3508,-4.3493,-4.3492,-4.3492,-4.3491,0,-4.3295,-4.3295,-4.3351,-4.3365,-4.337,-4.3407,-4.3419,-4.3449,-4.3449,-4.349,-4.3499,-4.35,-4.3533,-4.3528,-4.3564,-4.3561,-4.3621,-4.3612,-4.3616,-4.3614,-4.3656,-4.3652,-4.3791,-4.3809,-4.3683,-4.3684,-4.3685,0,-4.3357,-4.3393,-4.3412,-4.3433,-4.3444,-4.3477,-4.3497,-4.3489,-4.3509,-4.3532,-4.3559,-4.3591,-4.3616,-4.3669,-4.3672,-4.37,-4.3692,-4.3739,-4.3696,-4.3699,-4.3693,-4.3691,-4.3695,-4.3747,-4.3749,-4.375,-4.3751,0,-4.3466,-4.3464,-4.3494,-4.3524,-4.3548,-4.3571,-4.3591,-4.3609,-4.3602,-4.3627,-4.3661,-4.3681,-4.3719,-4.375,-4.3776,-4.3784,-4.3767,-4.3764,-4.3775,-4.378,-4.3781,-4.3782,-4.364,-4.3761,-4.376,-4.3759,-4.3759,-4.3758,-4.3545,-4.3576,-4.3595,-4.3628,-4.3643,-4.3663,-4.3692,-4.3697,-4.3726,-4.3757,-4.375,-4.3789,-4.3805,-4.3838,-4.3849,-4.3879,-4.3861,-4.3877,-4.3881,-4.3886,-4.3891,-4.3776,-4.3883,-4.3883,-4.3882,-4.3882,-4.3882,0,-4.3653,-4.3664,-4.3696,-4.3726,-4.3752,-4.3735,-4.3756,-4.3779,-4.3814,-4.3831,-4.3857,-4.3896,-4.3927,-4.3932,-4.3961,-4.3984,-4.3976,-4.3992,-4.399,-4.3992,-4.3904,-4.3892,-4.3997,-4.3997,-4.3997,-4.3997,-4.3997,-4.3997,-4.3713,-4.3765,-4.3766,-4.3824,-4.3834,-4.3874,-4.3888,-4.3905,-4.3919,-4.3965,-4.3991,-4.3994,-4.4006,-4.4036,-4.4063,-4.4064,-4.4075,-4.4094,-4.4092,-4.401,-4.3998,-4.3987,-4.3976,-4.4096,-4.4097,-4.4177,-4.4177,-4.4178]}]]